Regional Weather Roundup
Issued by NWS Sioux Falls, SD

Home | Current Version | Previous Version | Graphics & Text | Print | Product List | Glossary On
Versions: 1 2 3 4 5 6 7 8 9 10 11 12 13 14 15 16 17 18 19 20 21 22 23 24 25 26 27 28 29 30 31 32 33 34 35 36 37 38 39 40 41 42 43 44 45 46 47 48 49 50
000
ASUS43 KFSD 090810
RWRFSD

WEATHER ROUNDUP FOR SE SOUTH DAKOTA/SW MINNESOTA/NW IOWA
NATIONAL WEATHER SERVICE SIOUX FALLS SD
200 AM CST FRI DEC 09 2016

NOTE: "FAIR" INDICATES FEW OR NO CLOUDS BELOW 12,000 FEET WITH NO
SIGNIFICANT WEATHER AND OR OBSTRUCTIONS TO VISIBILITY.


SDZ038>040-050-052>070-090900-
SOUTHEAST SOUTH DAKOTA

CITY           SKY/WX    TMP DP  RH WIND       PRES   REMARKS
BROOKINGS      CLEAR     -2  -6  83 NW5       30.55F WCI -12
CHAMBERLAIN    CLOUDY     5   2  86 CALM      30.58F
HURON          CLEAR     -5  -8  87 W5        30.62F WCI -16
MADISON        FAIR       0  -2  92 NW7       30.56S WCI -13
MITCHELL       CLEAR     -1  -5  82 NW6       30.63F WCI -13
SIOUX FALLS    CLEAR      2  -1  88 W6        30.59S WCI  -9
WINNER         FAIR      -2  -8  76 S5        30.53F WCI -12
YANKTON        CLEAR      1  -2  85 NW5       30.62F WCI  -8
$$

MNZ071-072-080-081-089-090-097-098-090900-
SOUTHWEST MINNESOTA

CITY           SKY/WX    TMP DP  RH WIND       PRES   REMARKS
FAIRMONT       FLURRIES  11   6  81 NW15      30.57R WCI  -5
JACKSON        CLEAR      5   1  85 NW6       30.56R WCI  -6
LUVERNE        CLEAR      3   0  85 W6        30.58F WCI  -8
MARSHALL       CLEAR      3  -2  79 NW8       30.60R WCI -10
MONTEVIDEO     CLEAR      1  -2  85 N7        30.61S WCI -11
PIPESTONE      CLEAR      3   0  85 NW7       30.53F WCI  -9
REDWOOD FALLS  PTCLDY     5   0  79 NW12      30.59R WCI -11
TRACY          CLEAR      6   2  84 NW7       30.58R WCI  -6
WINDOM         CLEAR      7   1  78 CALM      30.56R
WORTHINGTON    CLEAR      4   1  88 W8        30.55F WCI  -9
$$

IAZ001>003-012>014-020>022-031-032-NEZ013-014-SDZ071-090900-
NORTHWEST IOWA

CITY           SKY/WX    TMP DP  RH WIND       PRES   REMARKS
CHEROKEE       CLEAR      6   4  90 W3        30.60F
DENISON        CLEAR      9   5  85 CALM      30.59F
ESTHERVILLE    PTCLDY     5   3  91 NW7       30.56R WCI  -7
LE MARS        CLEAR      5   1  85 CALM      30.63S
ORANGE CITY    PTCLDY     3   1  92 NW6       30.58S WCI  -8
SHELDON        CLEAR      5   3  92 W6        30.57F WCI  -6
SIOUX CITY     CLEAR     10   3  73 NW10      30.65R WCI  -4
SPENCER        CLEAR      6   2  83 W17       30.58S WCI -13
STORM LAKE     CLEAR      7   3  85 NW10      30.58S WCI  -8
$$

ABBREVIATIONS USED IN REMARKS
   TC - TEMPERATURE IN CELSIUS
  WCI - WIND CHILL INDEX
   HX - HEAT INDEX
  VSB - VISIBILITY





USA.gov is the U.S. government's official web portal to all federal, state and local government web resources and services.